Miscellaneous Local Product
Issued by NWS North Platte, NE

Home | Current Version | Previous Version | Text Only | Print | Product List | Glossary On
Versions: 1 2 3 4 5 6 7 8 9 10 11 12 13 14 15 16 17 18 19 20 21 22 23 24 25 26 27 28 29 30 31 32 33 34 35 36 37 38 39 40 41 42 43 44 45 46 47 48 49 50
000
AXUS43 KLBF 231010
MISLBF


WESTERN AND NORTH CENTRAL NEBRASKA HOURLY WEATHER ROUNDUP
NATIONAL WEATHER SERVICE NORTH PLATTE NE
400 AM CST THU NOV 23 2017

NOTE: "FAIR" INDICATES FEW OR NO CLOUDS BELOW 12,000 FEET WITH NO
SIGNIFICANT WEATHER AND/OR OBSTRUCTIONS TO VISIBILITY.

NOTE: STATIONS NOT REPORTING VARIABLES SUCH AS SKY/WEATHER OR
PRESSURE ARE PROVIDED BY RAWS AND APRS NETWORKS AND ARE NOT UNDER
NATIONAL WEATHER SERVICE QUALITY CONTROL.

...OBSERVATIONS IN AND NEAR THE EASTERN PANHANDLE OF NEBRASKA...

CITY           SKY/WX    TMP DP  RH WIND       PRES   REMARKS
PINE RIDGE     CLOUDY    36  34  92 W5        30.08F WCI  32
GORDON         FAIR      44  37  78 W10       30.07F
CHADRON        CLEAR     37  35  92 SW6       30.10S WCI  32
ALLIANCE       CLEAR     36  36 100 W9        30.12F WCI  29
SIDNEY         CLOUDY    44  38  79 W13       30.17F
$$

...OBSERVATIONS IN NORTHERN NEBRASKA AND FAR SOUTHERN SOUTH DAKOTA...

CITY           SKY/WX    TMP DP  RH WIND       PRES   REMARKS
WINNER         FAIR      41  36  82 SW7       30.01F
VALENTINE      CLEAR     37  33  85 W8        30.05S WCI  31
THEDFORD       CLEAR     36  34  92 W6        30.08S WCI  31
AINSWORTH      CLEAR     38  35  89 W8        30.04F WCI  32
O`NEILL        CLEAR     39  35  86 W6        30.03S WCI  35
ORD            CLEAR     34  31  88 NW9       30.03F WCI  27
BROKEN BOW     CLEAR     42  34  73 CALM      30.05F
VALENTINE NWR    N/A     45  36  71 W7          N/A
HALSEY           N/A     44  35  72 W5          N/A
BUTTE            N/A     42  37  81 CALM        N/A
CHAMBERS         N/A     41  35  79 W7          N/A
EWING            N/A     41  36  81 N3          N/A
$$

...OBSERVATIONS IN SOUTHWEST NEBRASKA AND FAR NORTHEAST COLORADO...

CITY           SKY/WX    TMP DP  RH WIND       PRES   REMARKS
HOLYOKE        FAIR      46  37  71 W9        30.16S
IMPERIAL       CLEAR     40  37  89 W6        30.14S
OGALLALA       CLEAR     45  38  77 SW8       30.13F
NORTH PLATTE   CLEAR     32  31  96 NW6       30.10F WCI  26
MCCOOK         CLEAR     39  35  86 W8        30.10S WCI  33
LEXINGTON      CLEAR     37  33  85 NW8       30.07S WCI  31
STAPLETON        N/A     40  35  81 CALM        N/A
GOTHENBURG       N/A     40  33  77 NW6         N/A
CALLAWAY         N/A     42  36  78 W8          N/A
$$

...OBSERVATIONS IN CENTRAL LINCOLN COUNTY AREA...

CITY           SKY/WX    TMP DP  RH WIND       PRES   REMARKS
N.P. AIRPORT   CLEAR     32  31  96 NW6       30.10F WCI  26
N.P. DOWNTOWN    N/A     38  35  88 CALM        N/A
N.P. SOUTHEAST   N/A     39  35  84 CALM        N/A
N.P. HILLCREST   N/A     39  34  83 W6          N/A  WCI  35
$$

...SOME OBSERVATIONS FROM AROUND THE REGION...

CITY           SKY/WX    TMP DP  RH WIND       PRES   REMARKS
DENVER         CLOUDY    48  33  56 SW13      30.24F
COPPER MTN     CLOUDY    34  32  93 MISG      30.59S FOG
GRAND JUNCTION CLOUDY    40  33  76 E5        30.39S
LARAMIE        CLOUDY    39  35  86 W6        30.31F WCI  35
CHEYENNE       CLOUDY    49  37  63 W16       30.25F
CASPER         CLOUDY    46  36  68 SW13      30.21F
BISMARCK       CLOUDY    26  22  84 E3        29.91F
RAPID CITY     CLOUDY    45  36  70 W5        30.02F
PIERRE         CLEAR     33  33 100 CALM      29.97F
SIOUX FALLS    CLOUDY    34  27  75 NW10      29.97R WCI  26
OMAHA          CLEAR     30  21  69 SE5       30.00S WCI  25
GRAND ISLAND   CLEAR     38  34  85 W8        30.04S WCI  32
SCOTTSBLUFF    CLOUDY    37  34  89 NW8       30.15F WCI  31
KANSAS CITY    CLEAR     35  21  56 SW10      30.05F WCI  27
HILL CITY      CLOUDY    44  37  76 W7        30.09R
WICHITA        PTCLDY    31  23  72 SW5       30.08F WCI  26
DODGE CITY     CLOUDY    48  32  53 NW12      30.10F
OKLAHOMA CITY  CLOUDY    32  22  66 S8        30.15F WCI  25
DALLAS         CLOUDY    39  29  67 SW3       30.19F
AMARILLO       CLOUDY    48  29  47 NW10      30.19S
$$




USA.gov is the U.S. government's official web portal to all federal, state and local government web resources and services.